"SCET";"TARGET";"ELECTRON_DENSITY";"ERROR_FLAG";"ELECTRON_DENSITY_ERROR";"FREQ_FCE";"MEASURED_VALUE";"MEASURED_ITEM";"FREQ_PLASMA";"FREQ_UPPER_HYBRID";"FREQ_R_EQUALS_ZERO";"FREQ_L_EQUALS_ZERO";"ORBIT_NUMBER";"SATURN_RADIUS";"SATURN_IAU_LONGITUDE";"SATURN_SLS4_S_LONGITUDE";"SATURN_SLS4_N_LONGITUDE";"SATURN_SLS5_S_LONGITUDE";"SATURN_SLS5_N_LONGITUDE";"SATURN_LOCAL_TIME";"SATURN_KRONOGRAPHIC_LATITUDE";"SATURN_MAGNETIC_LATITUDE";"SATURN_L";"SATURN_L_OFFSET";"SATURN_SOLAR_EQUATORIAL_X";"SATURN_SOLAR_EQUATORIAL_Y";"SATURN_SOLAR_EQUATORIAL_Z";"SATURN_ALTITUDE";"ENCELADUS_ENCOUNTER_NUMBER";"ENCELADUS_RADIUS";"ENCELADUS_COROTATIONAL_X";"ENCELADUS_COROTATIONAL_Y";"ENCELADUS_COROTATIONAL_Z";"ENCELADUS_TRUE_ANOMALY";"ENCELADUS_PERIAPSIS_TIME";"JUPITER_RADIUS";"JUPITER_SYSTEMIII_LONGITUDE";"JUPITER_MAGNETIC_LATITUDE";"JUPITER_MAGNETIC_LOCAL_TIME";"JUPITER_L";"IO_PHASE";"EARTH_RADIUS";"EARTH_MAGNETIC_LATITUDE";"EARTH_LOCAL_TIME";"EARTH_L"
"[UTC]";"[0=Saturn, 1=Enceladus, 2=Jupiter, 3=Earth]";"[cm-3]";"[0=automated, 1=manual]";"[normalized density error]";"[Hz]";"[Hz]";"[0=upper hybrid frequency, 1=plasma frequency cutoff]";"[Hz]";"[Hz]";"[Hz]";"[Hz}";"[0, A, B, C, 3, 4, ... , 292, 293]";"[Rs where 1Rs=60268km]";"[degrees]";"[degrees]";"[degrees]";"[degrees]";"[degrees]";"[hours]";"[degrees]";"[degrees where offset=2293km north]";"[Rs where 1Rs=60268km]";"[Rs where 1Rs=60268km and offset=2293km north]";"[Rs where 1Rs=60268km]";"[Rs where 1Rs=60268km]";"[Rs where 1Rs=60268km]";"[km where ellipsoid a,b=60268km and c=54364km]";"[E0, E1, E2, ... , E21, E22]";"[Renc where 1Renc=252.1km]";"[Renc where 1Renc=252.1km]";"[Renc where 1Renc=252.1km]";"[Renc where 1Renc=252.1km]";"[degrees]";"[UTC]";"[Rj where 1Rj=71492km]";"[degrees]";"[degrees using JRM09 model]";"[hours using JRM09 model]";"[Rj where 1Rj=71492km]";"[degrees]";"[Re where 1Re=6378.1366km]";"[degrees]";"[hours]";"[Re where 1Re=6378.1366km]"
2017-06-16T23:25:39.402Z;0;4.2040e+00;0;     0.146;427840.062;  18411.533; 1;  18411.533; 428236.031; 428630.906;    790.854;279;   1.255; 150.609;;; 256.361;   0.305;  10.773;  36.295;  34.871;   1.933;   1.232;   0.960;  -0.319;   0.743;17606.832;;;;;;;;;;;;;;;;;
2017-06-16T23:25:49.402Z;0;5.6630e+00;0;     0.130;427840.062;  21368.895; 1;  21368.895; 428373.375; 428904.688;   1064.641;279;   1.253; 150.549;;; 256.301;   0.244;  10.783;  36.120;  34.690;   1.921;   1.230;   0.962;  -0.317;   0.739;17470.051;;;;;;;;;;;;;;;;;
2017-06-16T23:25:59.401Z;0;5.8530e+00;0;     0.161;427840.062;  21725.514; 1;  21725.514; 428391.312; 428940.438;   1100.381;279;   1.251; 150.489;;; 256.242;   0.183;  10.793;  35.944;  34.509;   1.909;   1.228;   0.963;  -0.315;   0.735;17333.631;;;;;;;;;;;;;;;;;
2017-06-16T23:26:09.401Z;0;7.3790e+00;0;     0.149;431912.438;  24394.176; 1;  24394.176; 432600.781; 433285.844;   1373.402;279;   1.250; 150.429;;; 256.182;   0.122;  10.804;  35.767;  34.327;   1.898;   1.227;   0.965;  -0.312;   0.730;17197.549;;;;;;;;;;;;;;;;;
2017-06-16T23:26:19.401Z;0;6.9070e+00;0;     0.026;431912.438;  23599.896; 1;  23599.896; 432556.719; 433198.125;   1285.682;279;   1.248; 150.369;;; 256.123;   0.061;  10.814;  35.590;  34.144;   1.887;   1.225;   0.966;  -0.310;   0.726;17061.820;;;;;;;;;;;;;;;;;
2017-06-16T23:26:29.401Z;0;7.1720e+00;0;     0.151;431912.438;  24049.205; 1;  24049.205; 432581.469; 433247.406;   1334.952;279;   1.246; 150.310;;; 256.064;   0.000;  10.824;  35.412;  33.960;   1.875;   1.223;   0.968;  -0.308;   0.722;16926.451;;;;;;;;;;;;;;;;;
2017-06-16T23:26:59.401Z;0;9.3980e+00;0;     0.188;431912.438;  27529.650; 1;  27529.650; 432788.906; 433660.094;   1747.640;279;   1.240; 150.132;;; 255.889; 359.819;  10.855;  34.873;  33.405;   1.842;   1.217;   0.972;  -0.300;   0.709;16522.529;;;;;;;;;;;;;;;;;
2017-06-16T23:27:09.401Z;0;8.6660e+00;0;     0.197;435541.406;  26435.693; 1;  26435.693; 436342.938; 437140.062;   1598.677;279;   1.238; 150.074;;; 255.831; 359.760;  10.865;  34.691;  33.218;   1.831;   1.215;   0.973;  -0.298;   0.704;16388.631;;;;;;;;;;;;;;;;;
2017-06-16T23:27:19.401Z;0;1.1050e+01;0;     0.122;435541.406;  29855.246; 1;  29855.246; 436563.438; 437578.375;   2036.974;279;   1.236; 150.015;;; 255.774; 359.701;  10.875;  34.509;  33.031;   1.820;   1.214;   0.975;  -0.296;   0.700;16255.112;;;;;;;;;;;;;;;;;
2017-06-16T23:27:29.401Z;0;1.4480e+01;0;     0.106;435541.406;  34175.953; 1;  34175.953; 436880.188; 438206.781;   2665.399;279;   1.234; 149.957;;; 255.717; 359.642;  10.885;  34.327;  32.842;   1.809;   1.212;   0.976;  -0.293;   0.696;16121.975;;;;;;;;;;;;;;;;;
2017-06-16T23:27:39.401Z;0;1.4100e+01;0;     0.119;435541.406;  33717.133; 1;  33717.133; 436844.531; 438136.125;   2594.730;279;   1.232; 149.899;;; 255.659; 359.583;  10.895;  34.143;  32.653;   1.799;   1.210;   0.977;  -0.291;   0.691;15989.224;;;;;;;;;;;;;;;;;
2017-06-16T23:27:49.401Z;0;1.3360e+01;0;     0.127;435541.406;  32817.891; 1;  32817.891; 436776.062; 438000.344;   2458.934;279;   1.230; 149.841;;; 255.603; 359.524;  10.905;  33.959;  32.464;   1.788;   1.208;   0.979;  -0.288;   0.687;15856.862;;;;;;;;;;;;;;;;;
2017-06-16T23:27:59.401Z;0;1.1990e+01;0;     0.110;435541.406;  31090.711; 1;  31090.711; 436649.688; 437749.594;   2208.186;279;   1.228; 149.783;;; 255.546; 359.466;  10.916;  33.774;  32.273;   1.778;   1.206;   0.980;  -0.286;   0.683;15724.896;;;;;;;;;;;;;;;;;
2017-06-16T23:28:09.401Z;0;1.4100e+01;0;     0.102;438713.344;  33717.133; 1;  33717.133; 440007.094; 441289.531;   2576.188;279;   1.226; 149.725;;; 255.490; 359.408;  10.926;  33.588;  32.082;   1.767;   1.205;   0.982;  -0.284;   0.678;15593.328;;;;;;;;;;;;;;;;;
2017-06-16T23:28:19.401Z;0;1.3360e+01;0;     0.123;438713.344;  32817.891; 1;  32817.891; 439939.094; 441154.719;   2441.352;279;   1.225; 149.668;;; 255.433; 359.350;  10.936;  33.401;  31.890;   1.757;   1.203;   0.983;  -0.281;   0.674;15462.164;;;;;;;;;;;;;;;;;
2017-06-16T23:28:29.401Z;0;1.6140e+01;0;     0.109;438713.344;  36074.523; 1;  36074.523; 440194.031; 441659.906;   2946.546;279;   1.223; 149.611;;; 255.377; 359.293;  10.946;  33.214;  31.697;   1.747;   1.201;   0.984;  -0.279;   0.670;15331.407;;;;;;;;;;;;;;;;;
2017-06-16T23:28:39.400Z;0;1.3360e+01;0;     0.082;438713.344;  32817.891; 1;  32817.891; 439939.094; 441154.719;   2441.352;279;   1.221; 149.554;;; 255.322; 359.235;  10.956;  33.026;  31.503;   1.737;   1.199;   0.986;  -0.276;   0.665;15201.074;;;;;;;;;;;;;;;;;
2017-06-16T23:28:49.400Z;0;1.3720e+01;0;     0.081;438713.344;  33264.473; 1;  33264.473; 439972.656; 441221.219;   2507.869;279;   1.219; 149.497;;; 255.266; 359.178;  10.966;  32.837;  31.309;   1.727;   1.198;   0.987;  -0.274;   0.661;15071.145;;;;;;;;;;;;;;;;;
2017-06-16T23:28:59.400Z;0;1.6580e+01;0;     0.099;438713.344;  36565.426; 1;  36565.426; 440234.531; 441740.094;   3026.735;279;   1.217; 149.440;;; 255.211; 359.121;  10.976;  32.647;  31.114;   1.717;   1.196;   0.988;  -0.271;   0.657;14941.636;;;;;;;;;;;;;;;;;
2017-06-16T23:29:09.400Z;0;1.7500e+01;0;     0.105;441407.156;  37567.355; 1;  37567.355; 443002.906; 444581.594;   3174.459;279;   1.215; 149.384;;; 255.156; 359.065;  10.986;  32.457;  30.918;   1.707;   1.194;   0.990;  -0.269;   0.652;14812.551;;;;;;;;;;;;;;;;;
2017-06-16T23:29:19.400Z;0;1.9500e+01;0;     0.113;441407.156;  39654.328; 1;  39654.328; 443184.750; 444941.250;   3534.097;279;   1.213; 149.327;;; 255.102; 359.008;  10.996;  32.266;  30.721;   1.697;   1.192;   0.991;  -0.267;   0.648;14683.896;;;;;;;;;;;;;;;;;
2017-06-16T23:29:29.400Z;0;1.8980e+01;0;     0.095;441407.156;  39121.961; 1;  39121.961; 443137.438; 444847.719;   3440.566;279;   1.212; 149.271;;; 255.047; 358.952;  11.006;  32.074;  30.524;   1.687;   1.191;   0.992;  -0.264;   0.643;14555.675;;;;;;;;;;;;;;;;;
2017-06-16T23:29:39.400Z;0;2.0580e+01;0;     0.115;441407.156;  40740.895; 1;  40740.895; 443283.312; 445135.938;   3728.795;279;   1.210; 149.215;;; 254.993; 358.896;  11.016;  31.881;  30.326;   1.678;   1.189;   0.993;  -0.262;   0.639;14427.892;;;;;;;;;;;;;;;;;
2017-06-16T23:29:49.400Z;0;2.1150e+01;0;     0.089;441407.156;  41295.297; 1;  41295.297; 443334.594; 445237.250;   3830.096;279;   1.208; 149.160;;; 254.939; 358.841;  11.026;  31.688;  30.127;   1.668;   1.187;   0.995;  -0.259;   0.634;14300.552;;;;;;;;;;;;;;;;;
2017-06-16T23:29:59.400Z;0;2.4210e+01;0;     0.107;441407.156;  44182.527; 1;  44182.527; 443612.844; 445786.156;   4378.996;279;   1.206; 149.104;;; 254.885; 358.785;  11.036;  31.493;  29.927;   1.659;   1.186;   0.996;  -0.257;   0.630;14173.659;;;;;;;;;;;;;;;;;
2017-06-16T23:30:09.400Z;0;2.4870e+01;0;     0.106;443643.625;  44783.762; 1;  44783.762; 445898.250; 448119.188;   4475.562;279;   1.204; 149.049;;; 254.829; 358.728;  11.046;  31.298;  29.727;   1.650;   1.184;   0.997;  -0.254;   0.626;14047.219;;;;;;;;;;;;;;;;;
2017-06-16T23:30:19.400Z;0;2.2930e+01;0;     0.115;443643.625;  43004.172; 1;  43004.172; 445723.031; 447773.750;   4130.119;279;   1.203; 148.994;;; 254.773; 358.670;  11.056;  31.103;  29.526;   1.640;   1.182;   0.998;  -0.252;   0.621;13921.235;;;;;;;;;;;;;;;;;
2017-06-16T23:30:29.400Z;0;2.8470e+01;0;     0.140;443643.625;  47914.895; 1;  47914.895; 446223.594; 448759.594;   5115.962;279;   1.201; 148.939;;; 254.717; 358.612;  11.066;  30.906;  29.324;   1.631;   1.181;   1.000;  -0.249;   0.617;13795.714;;;;;;;;;;;;;;;;;
2017-06-16T23:30:39.400Z;0;2.6250e+01;0;     0.097;443643.625;  46010.883; 1;  46010.883; 446023.156; 448365.219;   4721.600;279;   1.199; 148.884;;; 254.661; 358.554;  11.076;  30.709;  29.121;   1.622;   1.179;   1.001;  -0.247;   0.612;13670.658;;;;;;;;;;;;;;;;;
2017-06-16T23:30:49.400Z;0;3.1720e+01;0;     0.083;443643.625;  50576.703; 1;  50576.703; 446517.250; 449336.469;   5692.845;279;   1.197; 148.829;;; 254.605; 358.496;  11.086;  30.511;  28.917;   1.613;   1.177;   1.002;  -0.245;   0.608;13546.074;;;;;;;;;;;;;;;;;
2017-06-16T23:30:59.400Z;0;2.4870e+01;0;     0.115;443643.625;  44783.762; 1;  44783.762; 445898.250; 448119.188;   4475.562;279;   1.196; 148.775;;; 254.549; 358.439;  11.095;  30.312;  28.713;   1.604;   1.176;   1.003;  -0.242;   0.603;13421.966;;;;;;;;;;;;;;;;;
2017-06-16T23:31:09.400Z;0;2.7710e+01;0;     0.065;445404.625;  47271.625; 1;  47271.625; 447906.094; 450366.375;   4961.753;279;   1.194; 148.720;;; 254.493; 358.382;  11.105;  30.113;  28.508;   1.595;   1.174;   1.005;  -0.240;   0.599;13298.338;;;;;;;;;;;;;;;;;
2017-06-16T23:31:19.399Z;0;3.0880e+01;0;     0.092;445404.625;  49897.699; 1;  49897.699; 448190.875; 450926.094;   5521.482;279;   1.192; 148.666;;; 254.438; 358.325;  11.115;  29.912;  28.302;   1.587;   1.172;   1.006;  -0.237;   0.594;13175.208;;;;;;;;;;;;;;;;;
2017-06-16T23:31:29.399Z;0;3.1720e+01;0;     0.126;445404.625;  50576.703; 1;  50576.703; 448266.969; 451075.500;   5670.897;279;   1.190; 148.612;;; 254.383; 358.268;  11.125;  29.711;  28.096;   1.578;   1.171;   1.007;  -0.235;   0.590;13052.557;;;;;;;;;;;;;;;;;
2017-06-16T23:31:39.399Z;0;3.3480e+01;0;     0.100;445404.625;  51962.559; 1;  51962.559; 448425.438; 451386.438;   5981.809;279;   1.189; 148.558;;; 254.327; 358.211;  11.135;  29.510;  27.889;   1.569;   1.169;   1.008;  -0.232;   0.585;12930.401;;;;;;;;;;;;;;;;;
2017-06-16T23:31:49.399Z;0;2.9250e+01;0;     0.114;445404.625;  48566.918; 1;  48566.918; 448044.656; 450638.844;   5234.226;279;   1.187; 148.505;;; 254.272; 358.154;  11.145;  29.307;  27.681;   1.561;   1.168;   1.009;  -0.230;   0.581;12808.746;;;;;;;;;;;;;;;;;
2017-06-16T23:31:59.399Z;0;3.0050e+01;0;     0.093;445404.625;  49227.812; 1;  49227.812; 448116.781; 450780.562;   5375.958;279;   1.185; 148.451;;; 254.218; 358.098;  11.155;  29.104;  27.472;   1.553;   1.166;   1.010;  -0.227;   0.576;12687.597;;;;;;;;;;;;;;;;;
2017-06-16T23:32:09.399Z;0;2.8470e+01;0;     0.087;446673.500;  47914.895; 1;  47914.895; 449236.062; 451755.531;   5082.034;279;   1.184; 148.398;;; 254.163; 358.041;  11.164;  28.900;  27.262;   1.544;   1.165;   1.011;  -0.225;   0.572;12566.958;;;;;;;;;;;;;;;;;
2017-06-16T23:32:19.399Z;0;2.8470e+01;0;     0.136;446673.500;  47914.895; 1;  47914.895; 449236.062; 451755.531;   5082.034;279;   1.182; 148.344;;; 254.108; 357.985;  11.174;  28.695;  27.052;   1.536;   1.163;   1.013;  -0.222;   0.567;12446.836;;;;;;;;;;;;;;;;;
2017-06-16T23:32:29.399Z;0;3.0880e+01;0;     0.119;446673.500;  49897.699; 1;  49897.699; 449451.875; 452179.688;   5506.175;279;   1.180; 148.291;;; 254.054; 357.929;  11.184;  28.489;  26.841;   1.528;   1.161;   1.014;  -0.220;   0.563;12327.234;;;;;;;;;;;;;;;;;
2017-06-16T23:32:39.399Z;0;2.8470e+01;0;     0.121;446673.500;  47914.895; 1;  47914.895; 449236.062; 451755.531;   5082.034;279;   1.179; 148.239;;; 254.000; 357.873;  11.194;  28.283;  26.629;   1.520;   1.160;   1.015;  -0.217;   0.558;12208.159;;;;;;;;;;;;;;;;;
2017-06-16T23:32:49.399Z;0;2.7710e+01;0;     0.123;446673.500;  47271.625; 1;  47271.625; 449167.938; 451621.469;   4947.963;279;   1.177; 148.186;;; 253.946; 357.817;  11.203;  28.076;  26.417;   1.512;   1.158;   1.016;  -0.215;   0.554;12089.615;;;;;;;;;;;;;;;;;
2017-06-16T23:32:59.399Z;0;3.0050e+01;0;     0.060;446673.500;  49227.812; 1;  49227.812; 449378.000; 452034.531;   5361.045;279;   1.175; 148.133;;; 253.892; 357.762;  11.213;  27.868;  26.204;   1.504;   1.157;   1.017;  -0.212;   0.549;11971.607;;;;;;;;;;;;;;;;;
2017-06-16T23:33:09.399Z;0;3.0880e+01;0;     0.099;447456.750;  49897.699; 1;  49897.699; 450230.281; 452953.500;   5496.768;279;   1.174; 148.081;;; 253.838; 357.706;  11.223;  27.659;  25.990;   1.496;   1.155;   1.018;  -0.210;   0.545;11854.143;;;;;;;;;;;;;;;;;
2017-06-16T23:33:19.399Z;0;3.1720e+01;0;     0.078;447456.750;  50576.703; 1;  50576.703; 450306.031; 453102.250;   5645.531;279;   1.172; 148.029;;; 253.784; 357.651;  11.233;  27.450;  25.775;   1.488;   1.154;   1.019;  -0.207;   0.540;11737.225;;;;;;;;;;;;;;;;;
2017-06-16T23:33:29.399Z;0;3.0050e+01;0;     0.102;447456.750;  49227.812; 1;  49227.812; 450156.531; 452808.625;   5351.880;279;   1.170; 147.976;;; 253.730; 357.596;  11.242;  27.240;  25.560;   1.480;   1.152;   1.020;  -0.205;   0.536;11620.859;;;;;;;;;;;;;;;;;
2017-06-16T23:33:39.399Z;0;3.7310e+01;0;     0.092;447456.750;  54849.227; 1;  54849.227; 450805.906; 454082.062;   6625.317;279;   1.169; 147.924;;; 253.677; 357.540;  11.252;  27.029;  25.344;   1.473;   1.151;   1.021;  -0.202;   0.531;11505.053;;;;;;;;;;;;;;;;;
2017-06-16T23:33:49.398Z;0;4.5080e+01;0;     0.072;447456.750;  60292.109; 1;  60292.109; 451500.469; 455438.375;   7981.625;279;   1.167; 147.873;;; 253.624; 357.486;  11.262;  26.818;  25.127;   1.465;   1.149;   1.022;  -0.200;   0.526;11389.820;;;;;;;;;;;;;;;;;
2017-06-16T23:33:59.398Z;0;4.1570e+01;0;     0.088;447456.750;  57896.258; 1;  57896.258; 451186.781; 454826.531;   7369.792;279;   1.165; 147.821;;; 253.571; 357.431;  11.272;  26.605;  24.909;   1.458;   1.148;   1.023;  -0.197;   0.522;11275.146;;;;;;;;;;;;;;;;;
2017-06-16T23:34:09.398Z;0;3.5340e+01;0;     0.083;447774.656;  53386.387; 1;  53386.387; 450945.938; 454051.719;   6277.052;279;   1.164; 147.769;;; 253.518; 357.376;  11.281;  26.392;  24.691;   1.451;   1.146;   1.024;  -0.195;   0.517;11161.046;;;;;;;;;;;;;;;;;
2017-06-16T23:34:19.398Z;0;3.4400e+01;0;     0.119;447774.656;  52669.660; 1;  52669.660; 450861.656; 453886.531;   6111.865;279;   1.162; 147.718;;; 253.465; 357.322;  11.291;  26.179;  24.472;   1.443;   1.145;   1.025;  -0.192;   0.513;11047.525;;;;;;;;;;;;;;;;;
2017-06-16T23:34:29.398Z;0;3.8330e+01;0;     0.096;447774.656;  55595.609; 1;  55595.609; 451212.844; 454574.156;   6799.489;279;   1.161; 147.667;;; 253.412; 357.267;  11.301;  25.964;  24.252;   1.436;   1.143;   1.026;  -0.190;   0.508;10934.591;;;;;;;;;;;;;;;;;
2017-06-16T23:34:39.398Z;0;3.2590e+01;0;     0.069;447774.656;  51264.949; 1;  51264.949; 450699.719; 453568.906;   5794.257;279;   1.159; 147.616;;; 253.360; 357.213;  11.310;  25.749;  24.031;   1.429;   1.142;   1.027;  -0.187;   0.503;10822.248;;;;;;;;;;;;;;;;;
2017-06-16T23:34:49.398Z;0;3.4400e+01;0;     0.076;447774.656;  52669.660; 1;  52669.660; 450861.656; 453886.531;   6111.865;279;   1.158; 147.565;;; 253.307; 357.159;  11.320;  25.533;  23.810;   1.422;   1.141;   1.028;  -0.185;   0.499;10710.501;;;;;;;;;;;;;;;;;
2017-06-16T23:34:59.398Z;0;3.9380e+01;0;     0.088;447774.656;  56352.152; 1;  56352.152; 451306.656; 454757.656;   6982.983;279;   1.156; 147.514;;; 253.255; 357.105;  11.330;  25.316;  23.588;   1.415;   1.139;   1.029;  -0.182;   0.494;10599.356;;;;;;;;;;;;;;;;;
2017-06-16T23:35:09.398Z;0;4.2710e+01;0;     0.067;447663.094;  58684.105; 1;  58684.105; 451493.156; 455228.156;   7565.051;279;   1.155; 147.463;;; 253.203; 357.051;  11.339;  25.099;  23.366;   1.408;   1.138;   1.030;  -0.180;   0.490;10488.820;;;;;;;;;;;;;;;;;
2017-06-16T23:35:19.398Z;0;4.2710e+01;0;     0.064;447663.094;  58684.105; 1;  58684.105; 451493.156; 455228.156;   7565.051;279;   1.153; 147.413;;; 253.151; 356.998;  11.349;  24.881;  23.142;   1.401;   1.136;   1.031;  -0.177;   0.485;10378.897;;;;;;;;;;;;;;;;;
2017-06-16T23:35:29.398Z;0;4.7580e+01;0;     0.073;447663.094;  61944.176; 1;  61944.176; 451928.469; 456076.344;   8413.242;279;   1.152; 147.362;;; 253.099; 356.944;  11.358;  24.662;  22.918;   1.394;   1.135;   1.032;  -0.175;   0.480;10269.595;;;;;;;;;;;;;;;;;
2017-06-16T23:35:39.398Z;0;5.0230e+01;0;     0.076;447663.094;  63641.508; 1;  63641.508; 452164.219; 456534.812;   8871.704;279;   1.150; 147.312;;; 253.048; 356.891;  11.368;  24.442;  22.694;   1.388;   1.134;   1.033;  -0.172;   0.476;10160.917;;;;;;;;;;;;;;;;;
2017-06-16T23:35:49.398Z;0;5.5960e+01;0;     0.077;447663.094;  67176.977; 1;  67176.977; 452675.375; 457526.469;   9863.355;279;   1.149; 147.262;;; 252.996; 356.838;  11.378;  24.222;  22.468;   1.381;   1.132;   1.034;  -0.170;   0.471;10052.870;;;;;;;;;;;;;;;;;
2017-06-16T23:35:59.398Z;0;5.7490e+01;0;     0.075;447663.094;  68091.117; 1;  68091.117; 452811.938; 457790.875;  10127.770;279;   1.147; 147.212;;; 252.945; 356.785;  11.387;  24.001;  22.242;   1.374;   1.131;   1.034;  -0.167;   0.466; 9945.461;;;;;;;;;;;;;;;;;
2017-06-16T23:36:09.398Z;0;5.9070e+01;0;     0.076;447156.375;  69017.695; 1;  69017.695; 452451.406; 457566.781;  10410.376;279;   1.146; 147.162;;; 252.893; 356.732;  11.397;  23.779;  22.015;   1.368;   1.130;   1.035;  -0.165;   0.462; 9838.693;;;;;;;;;;;;;;;;;
2017-06-16T23:36:19.398Z;0;6.0690e+01;0;     0.063;447156.375;  69956.883; 1;  69956.883; 452595.625; 457845.500;  10689.120;279;   1.144; 147.112;;; 252.842; 356.679;  11.406;  23.557;  21.788;   1.362;   1.128;   1.036;  -0.162;   0.457; 9732.575;;;;;;;;;;;;;;;;;
2017-06-16T23:36:29.397Z;0;6.4060e+01;0;     0.065;447156.375;  71873.773; 1;  71873.773; 452895.875; 458425.062;  11268.667;279;   1.143; 147.062;;; 252.791; 356.627;  11.416;  23.334;  21.560;   1.355;   1.127;   1.037;  -0.160;   0.453; 9627.122;;;;;;;;;;;;;;;;;
2017-06-16T23:36:39.397Z;0;6.5820e+01;0;     0.068;447156.375;  72851.820; 1;  72851.820; 453052.125; 458726.219;  11569.837;279;   1.141; 147.013;;; 252.741; 356.574;  11.426;  23.110;  21.331;   1.349;   1.126;   1.038;  -0.157;   0.448; 9522.318;;;;;;;;;;;;;;;;;
2017-06-16T23:36:49.397Z;0;6.5820e+01;0;     0.065;447156.375;  72851.820; 1;  72851.820; 453052.125; 458726.219;  11569.837;279;   1.140; 146.963;;; 252.690; 356.522;  11.435;  22.885;  21.101;   1.343;   1.124;   1.039;  -0.155;   0.443; 9418.182;;;;;;;;;;;;;;;;;
2017-06-16T23:36:59.397Z;0;6.7620e+01;0;     0.080;447156.375;  73843.188; 1;  73843.188; 453212.594; 459035.250;  11878.862;279;   1.138; 146.914;;; 252.640; 356.470;  11.445;  22.660;  20.871;   1.337;   1.123;   1.039;  -0.152;   0.438; 9314.717;;;;;;;;;;;;;;;;;
2017-06-16T23:37:09.397Z;0;7.1380e+01;0;     0.071;446287.312;  75866.562; 1;  75866.562; 452689.875; 458831.656;  12544.329;279;   1.137; 146.865;;; 252.589; 356.418;  11.454;  22.434;  20.640;   1.331;   1.122;   1.040;  -0.150;   0.434; 9211.930;;;;;;;;;;;;;;;;;
2017-06-16T23:37:19.397Z;0;6.9470e+01;0;     0.062;446287.312;  74848.039; 1;  74848.039; 452520.281; 458505.781;  12218.448;279;   1.136; 146.815;;; 252.539; 356.366;  11.464;  22.207;  20.408;   1.325;   1.121;   1.041;  -0.147;   0.429; 9109.828;;;;;;;;;;;;;;;;;
2017-06-16T23:37:29.397Z;0;7.3330e+01;0;     0.077;446287.312;  76898.953; 1;  76898.953; 452864.031; 459166.000;  12878.674;279;   1.134; 146.766;;; 252.489; 356.314;  11.473;  21.980;  20.176;   1.319;   1.119;   1.042;  -0.145;   0.424; 9008.416;;;;;;;;;;;;;;;;;
2017-06-16T23:37:39.397Z;0;7.1380e+01;0;     0.083;446287.312;  75866.562; 1;  75866.562; 452689.875; 458831.656;  12544.329;279;   1.133; 146.718;;; 252.439; 356.263;  11.483;  21.752;  19.943;   1.313;   1.118;   1.043;  -0.142;   0.420; 8907.701;;;;;;;;;;;;;;;;;
2017-06-16T23:37:49.397Z;0;6.7620e+01;0;     0.064;446287.312;  73843.188; 1;  73843.188; 452355.156; 458188.156;  11900.823;279;   1.131; 146.669;;; 252.389; 356.211;  11.492;  21.523;  19.710;   1.307;   1.117;   1.043;  -0.139;   0.415; 8807.688;;;;;;;;;;;;;;;;;
2017-06-16T23:37:59.397Z;0;6.4060e+01;0;     0.059;446287.312;  71873.773; 1;  71873.773; 452037.844; 457576.875;  11289.555;279;   1.130; 146.620;;; 252.340; 356.160;  11.502;  21.294;  19.475;   1.302;   1.116;   1.044;  -0.137;   0.410; 8708.384;;;;;;;;;;;;;;;;;
2017-06-16T23:38:09.397Z;0;6.2350e+01;0;     0.089;445112.688;  70908.852; 1;  70908.852; 450725.375; 456135.875;  11023.175;279;   1.129; 146.572;;; 252.290; 356.109;  11.511;  21.064;  19.241;   1.296;   1.115;   1.045;  -0.134;   0.406; 8609.795;;;;;;;;;;;;;;;;;
2017-06-16T23:38:19.397Z;0;6.5820e+01;0;     0.071;445112.688;  72851.820; 1;  72851.820; 451035.125; 456733.031;  11620.328;279;   1.127; 146.523;;; 252.241; 356.058;  11.521;  20.833;  19.005;   1.291;   1.113;   1.045;  -0.132;   0.401; 8511.926;;;;;;;;;;;;;;;;;
2017-06-16T23:38:29.397Z;0;7.1380e+01;0;     0.070;445112.688;  75866.562; 1;  75866.562; 451531.875; 457688.344;  12575.665;279;   1.126; 146.475;;; 252.192; 356.007;  11.530;  20.602;  18.769;   1.285;   1.112;   1.046;  -0.129;   0.396; 8414.784;;;;;;;;;;;;;;;;;
2017-06-16T23:38:39.397Z;0;6.9470e+01;0;     0.074;445112.688;  74848.039; 1;  74848.039; 451361.875; 457361.719;  12249.012;279;   1.125; 146.426;;; 252.143; 355.956;  11.540;  20.370;  18.532;   1.280;   1.111;   1.047;  -0.127;   0.391; 8318.376;;;;;;;;;;;;;;;;;
2017-06-16T23:38:49.397Z;0;6.7620e+01;0;     0.060;445112.688;  73843.188; 1;  73843.188; 451196.312; 457043.312;  11930.634;279;   1.123; 146.378;;; 252.094; 355.906;  11.549;  20.137;  18.295;   1.274;   1.110;   1.047;  -0.124;   0.387; 8222.706;;;;;;;;;;;;;;;;;
2017-06-16T23:38:59.396Z;0;6.5820e+01;0;     0.092;445112.688;  72851.820; 1;  72851.820; 451035.125; 456733.031;  11620.328;279;   1.122; 146.330;;; 252.045; 355.855;  11.559;  19.903;  18.056;   1.269;   1.109;   1.048;  -0.122;   0.382; 8127.792;;;;;;;;;;;;;;;;;
2017-06-16T23:39:09.396Z;0;7.3330e+01;0;     0.060;443675.875;  76898.953; 1;  76898.953; 450290.688; 456626.156;  12950.307;279;   1.121; 146.282;;; 251.996; 355.805;  11.568;  19.669;  17.818;   1.264;   1.108;   1.049;  -0.119;   0.377; 8033.620;;;;;;;;;;;;;;;;;
2017-06-16T23:39:19.396Z;0;8.3940e+01;0;     0.070;443675.875;  82275.477; 1;  82275.477; 451239.969; 458441.656;  14765.792;279;   1.120; 146.234;;; 251.948; 355.755;  11.578;  19.435;  17.578;   1.259;   1.106;   1.049;  -0.116;   0.372; 7940.205;;;;;;;;;;;;;;;;;
2017-06-16T23:39:29.396Z;0;7.5340e+01;0;     0.068;443675.875;  77945.383; 1;  77945.383; 450470.594; 456970.969;  13295.117;279;   1.118; 146.187;;; 251.900; 355.705;  11.587;  19.199;  17.339;   1.254;   1.105;   1.050;  -0.114;   0.368; 7847.555;;;;;;;;;;;;;;;;;